Weather in Kyrykivka

Ukraine / Sumi District     50°21′10″N   35°07′14″E
temp.,
°C
wind,
m/s
gust,
m/s
humid.,
%
clouds,
%
prec.,
mm/h
press.,
hPa
HPBL,
m
26 july, mon
mon2600:00+19e365113 0.0 102186
03:00+17e36575 0.0 102182
06:00+17ese36680 0.0 1022111
09:00+24e45450 0.0 1022516
12:00+29e44310 0.0 10212020
15:00+30ene44284 0.0 10202837
18:00+28ene453496 0.0 1020928
21:00+25ene51038100 0.0 1021309
27 july, tue
tue2700:00+22e5114742 0.0 1022228
03:00+21ese484876 0.0 1021184
06:00+20e355442 0.0 1022119
09:00+25ese454033 0.0 1021505
12:00+30ese33313 0.0 10212086
15:00+31ne1228100 0.0 10192996
18:00+28se343387 0.0 1018492
21:00+25e343660 0.0 101850
28 july, wed
wed2800:00+23se374459 0.0 1019131
03:00+21s385028 0.0 1018158
06:00+21s385792 0.0 1017198
09:00+26ssw5848100 0.0 1016462
12:00+25wsw2555100 0.1 1016280
15:00+30ssw7938100 0.3 10141931
18:00+29ssw6104511 0.3 10131649
21:00+19nw101890100 4.7 1016700
29 july, thu
thu2900:00+18ssw359298 1.2 101394
03:00+17wsw33905 1.2 101346
06:00+18w22905 0.0 101350
09:00+24wnw236921 0.0 1013387
12:00+29wnw33465 0.0 10131612
15:00+31nw33370 0.0 10122089
18:00+30nnw33403 0.0 10111567
21:00+24nne22565 0.0 101112
30 july, fri
fri3000:00+23ese345897 0.0 101264
03:00+21se336499 0.0 101136
06:00+21ese367045 0.1 1011120
09:00+26s34565 0.3 1011489
12:00+31sw454038 0.0 10101561
15:00+32wsw56385 0.0 10102563
18:00+32wsw463810 0.0 10082496
21:00+24nnw336253 0.0 101040